Regional Weather Roundup
Issued by NWS

Home | Current Version | Previous Version | Text Only | Print | Product List | Glossary Off
Versions: 1 2 3 4 5 6 7 8 9 10 11 12 13 14 15 16 17 18 19 20 21 22 23 24 25 26 27 28 29 30 31 32 33 34 35 36 37 38 39 40 41 42 43 44 45 46 47 48 49 50

000
ASUS45 KCYS 302110
RWRWY

WYOMING REGIONAL WEATHER ROUNDUP
NATIONAL WEATHER SERVICE CHEYENNE WY
300 PM MDT WED JUL 30 2014

NOTE:  "FAIR" INDICATES FEW OR NO CLOUDS BELOW 12,000 FEET
WITH NO SIGNIFICANT WEATHER AND/OR OBSTRUCTIONS TO VISIBILITY.

WYZ001-302200-
YELLOWSTONE NATIONAL PARK

CITY           SKY/WX    TMP DP  RH WIND       PRES   REMARKS
LK YELLOWSTONE   N/A     69  32  25 S5        30.47F
W YELLOWSTONE  NOT AVBL

$$
WYZ002>013-054>058-071-098>099-302200-
NORTHERN WYOMING

CITY           SKY/WX    TMP DP  RH WIND       PRES   REMARKS
JACKSON        SUNNY     73  45  35 SE9       30.35F
CODY           NOT AVBL
GREYBULL       MOSUNNY   85  43  22 CALM      30.21F
WORLAND        MOSUNNY   83  44  25 N8        30.23F
SHERIDAN       MOSUNNY   86  39  19 CALM      30.23F
BUFFALO        MOSUNNY   80  37  21 N10       30.31R
GILLETTE       MOSUNNY   81  36  19 N6        30.25R
HULETT         FAIR      81  37  21 MISG      30.25
NEWCASTLE      FAIR      81  36  19 W8        30.22

$$
WYZ014>020-022>026-101>103-302200-
CENTRAL WYOMING

CITY           SKY/WX    TMP DP  RH WIND       PRES   REMARKS
BIG PINEY      LGT RAIN  54  50  86 NW7       30.45S
PINEDALE       CLOUDY    59  45  58 CALM      30.45S
DUBOIS         FAIR      64  36  34 E10       30.43S
LANDER         CLOUDY    71  48  43 NW7       30.33F
RIVERTON       PTSUNNY   74  41  30 N6        30.33F
CASPER         MOSUNNY   78  42  27 VRB6      30.29F
DOUGLAS        MOSUNNY   75  46  35 W5        30.30S

$$
WYZ021-027>030-104>119-302200-
SOUTHERN WYOMING

CITY           SKY/WX    TMP DP  RH WIND       PRES   REMARKS
EVANSTON       CLOUDY    61  53  75 E17       30.39S
KEMMERER       CLOUDY    59  52  77 NE16      30.43S
FORT BRIDGER   CLOUDY    60  56  87 E13       30.44R
ROCK SPRINGS   RAIN      58  53  84 NE8       30.40R
DIXON          RAIN      64  58  82 SE7       30.34S
RAWLINS        CLOUDY    63  48  58 E16       30.37S
SARATOGA       CLOUDY    63  52  67 NE5       30.38R
LARAMIE        LGT RAIN  58  51  78 SE7       30.41S
CHEYENNE       LGT RAIN  60  55  83 S8        30.38S
TORRINGTON     PTSUNNY   75  52  44 W7        30.26S
PINE BLUFFS    MOCLDY    63  55  77 S10       30.35S

$$



USA.gov is the U.S. government's official web portal to all federal, state and local government web resources and services.